Time,TemperatureF,DewpointF,PressureIn,WindDirection,WindDirectionDegrees,WindSpeedMPH,WindSpeedGustMPH,Humidity,HourlyPrecipIn,Conditions,Clouds,dailyrainin,SoftwareType,DateUTC
2013-09-28 00:05:00,61.3,54.0,30.20,ENE,61,5.0,8.0,76,0.00,,,0.00,weatherlink.com 1.10,2013-09-28 04:05:00,
2013-09-28 00:20:00,-999.0,-99.9,30.20,North,-999,-999.0,-999.0,-999,0.00,,,0.00,weatherlink.com 1.10,2013-09-28 04:20:00,
2013-09-28 00:35:00,-999.0,-99.9,30.20,North,-999,-999.0,-999.0,-999,0.00,,,0.00,weatherlink.com 1.10,2013-09-28 04:35:00,
2013-09-28 00:50:00,-999.0,-99.9,30.20,North,-999,-999.0,-999.0,-999,0.00,,,0.00,weatherlink.com 1.10,2013-09-28 04:50:00,
2013-09-28 01:06:00,-999.0,-99.9,30.20,North,-999,-999.0,-999.0,-999,0.00,,,0.00,weatherlink.com 1.10,2013-09-28 05:06:00,
2013-09-28 01:21:00,-999.0,-99.9,30.20,North,-999,-999.0,-999.0,-999,0.00,,,0.00,weatherlink.com 1.10,2013-09-28 05:21:00,
2013-09-28 01:36:00,-999.0,-99.9,30.20,North,-999,-999.0,-999.0,-999,0.00,,,0.00,weatherlink.com 1.10,2013-09-28 05:36:00,
2013-09-28 01:51:00,-999.0,-99.9,30.20,North,-999,-999.0,-999.0,-999,0.00,,,0.00,weatherlink.com 1.10,2013-09-28 05:51:00,
2013-09-28 02:06:00,-999.0,-99.9,30.20,North,-999,-999.0,-999.0,-999,0.00,,,0.00,weatherlink.com 1.10,2013-09-28 06:06:00,
2013-09-28 02:21:00,-999.0,-99.9,30.20,North,-999,-999.0,-999.0,-999,0.00,,,0.00,weatherlink.com 1.10,2013-09-28 06:21:00,
2013-09-28 02:36:00,-999.0,-99.9,30.19,North,-999,-999.0,-999.0,-999,0.00,,,0.00,weatherlink.com 1.10,2013-09-28 06:36:00,
2013-09-28 02:51:00,-999.0,-99.9,30.19,North,-999,-999.0,-999.0,-999,0.00,,,0.00,weatherlink.com 1.10,2013-09-28 06:51:00,
2013-09-28 03:06:00,-999.0,-99.9,30.19,North,-999,-999.0,-999.0,-999,0.00,,,0.00,weatherlink.com 1.10,2013-09-28 07:06:00,
2013-09-28 03:21:00,-999.0,-99.9,30.19,North,-999,-999.0,-999.0,-999,0.00,,,0.00,weatherlink.com 1.10,2013-09-28 07:21:00,
2013-09-28 03:36:00,-999.0,-99.9,30.19,North,-999,-999.0,-999.0,-999,0.00,,,0.00,weatherlink.com 1.10,2013-09-28 07:36:00,
2013-09-28 03:51:00,-999.0,-99.9,30.19,North,-999,-999.0,-999.0,-999,0.00,,,0.00,weatherlink.com 1.10,2013-09-28 07:51:00,
2013-09-28 04:06:00,-999.0,-99.9,30.20,North,-999,-999.0,-999.0,-999,0.00,,,0.00,weatherlink.com 1.10,2013-09-28 08:06:00,
2013-09-28 04:21:00,-999.0,-99.9,30.20,North,-999,-999.0,-999.0,-999,0.00,,,0.00,weatherlink.com 1.10,2013-09-28 08:21:00,
2013-09-28 04:36:00,-999.0,-99.9,30.20,North,-999,-999.0,-999.0,-999,0.00,,,0.00,weatherlink.com 1.10,2013-09-28 08:36:00,
2013-09-28 04:51:00,-999.0,-99.9,30.20,North,-999,-999.0,-999.0,-999,0.00,,,0.00,weatherlink.com 1.10,2013-09-28 08:51:00,
2013-09-28 05:06:00,-999.0,-99.9,30.20,North,-999,-999.0,-999.0,-999,0.00,,,0.00,weatherlink.com 1.10,2013-09-28 09:06:00,
2013-09-28 05:21:00,-999.0,-99.9,30.20,North,-999,-999.0,-999.0,-999,0.00,,,0.00,weatherlink.com 1.10,2013-09-28 09:21:00,
2013-09-28 05:36:00,-999.0,-99.9,30.21,North,-999,-999.0,-999.0,-999,0.00,,,0.00,weatherlink.com 1.10,2013-09-28 09:36:00,
2013-09-28 05:51:00,-999.0,-99.9,30.21,North,-999,-999.0,-999.0,-999,0.00,,,0.00,weatherlink.com 1.10,2013-09-28 09:51:00,
2013-09-28 06:06:00,-999.0,-99.9,30.21,North,-999,-999.0,-999.0,-999,0.00,,,0.00,weatherlink.com 1.10,2013-09-28 10:06:00,
2013-09-28 06:21:00,-999.0,-99.9,30.22,North,-999,-999.0,-999.0,-999,0.00,,,0.00,weatherlink.com 1.10,2013-09-28 10:21:00,
2013-09-28 06:36:00,-999.0,-99.9,30.22,North,-999,-999.0,-999.0,-999,0.00,,,0.00,weatherlink.com 1.10,2013-09-28 10:36:00,
2013-09-28 06:51:00,-999.0,-99.9,30.23,North,-999,-999.0,-999.0,-999,0.00,,,0.00,weatherlink.com 1.10,2013-09-28 10:51:00,
2013-09-28 07:07:00,60.8,57.0,30.23,NE,34,6.0,8.0,88,0.00,,,0.00,weatherlink.com 1.10,2013-09-28 11:07:00,
2013-09-28 07:22:00,61.4,58.0,30.23,North,4,6.0,8.0,88,0.00,,,0.00,weatherlink.com 1.10,2013-09-28 11:22:00,
2013-09-28 07:37:00,61.8,58.0,30.23,NNE,22,8.0,10.0,87,0.00,,,0.00,weatherlink.com 1.10,2013-09-28 11:37:00,
2013-09-28 07:52:00,62.3,59.0,30.24,NE,39,8.0,8.0,88,0.00,,,0.00,weatherlink.com 1.10,2013-09-28 11:52:00,
2013-09-28 08:07:00,62.3,59.0,30.24,NE,39,8.0,9.0,88,0.00,,,0.00,weatherlink.com 1.10,2013-09-28 12:07:00,
2013-09-28 08:22:00,62.5,59.0,30.24,NE,34,10.0,10.0,87,0.00,,,0.00,weatherlink.com 1.10,2013-09-28 12:22:00,
2013-09-28 08:37:00,62.6,59.0,30.24,NE,47,8.0,9.0,87,0.00,,,0.00,weatherlink.com 1.10,2013-09-28 12:37:00,
2013-09-28 08:52:00,62.6,59.0,30.24,NE,44,5.0,9.0,88,0.00,,,0.00,weatherlink.com 1.10,2013-09-28 12:52:00,
2013-09-28 09:07:00,62.7,59.0,30.25,NE,39,7.0,9.0,88,0.00,,,0.00,weatherlink.com 1.10,2013-09-28 13:07:00,
2013-09-28 09:22:00,62.9,59.0,30.25,ENE,57,7.0,9.0,88,0.00,,,0.00,weatherlink.com 1.10,2013-09-28 13:22:00,
2013-09-28 09:37:00,63.0,59.0,30.26,NNE,29,6.0,9.0,87,0.00,,,0.00,weatherlink.com 1.10,2013-09-28 13:37:00,
2013-09-28 09:52:00,63.4,59.0,30.26,NE,39,7.0,9.0,85,0.00,,,0.00,weatherlink.com 1.10,2013-09-28 13:52:00,
2013-09-28 10:07:00,63.3,59.0,30.26,NE,56,7.0,10.0,85,0.00,,,0.00,weatherlink.com 1.10,2013-09-28 14:07:00,
2013-09-28 10:22:00,63.4,59.0,30.26,ENE,58,6.0,8.0,85,0.00,,,0.00,weatherlink.com 1.10,2013-09-28 14:22:00,
2013-09-28 10:37:00,63.5,59.0,30.26,ENE,58,6.0,9.0,85,0.00,,,0.00,weatherlink.com 1.10,2013-09-28 14:37:00,
2013-09-28 10:52:00,63.6,59.0,30.26,NE,44,7.0,8.0,85,0.00,,,0.00,weatherlink.com 1.10,2013-09-28 14:52:00,
2013-09-28 11:07:00,63.7,60.0,30.26,NNE,32,8.0,9.0,86,0.00,,,0.00,weatherlink.com 1.10,2013-09-28 15:07:00,
2013-09-28 11:22:00,63.9,59.0,30.26,ENE,58,7.0,9.0,85,0.00,,,0.00,weatherlink.com 1.10,2013-09-28 15:22:00,
2013-09-28 11:37:00,64.0,59.0,30.26,NE,43,6.0,7.0,84,0.00,,,0.00,weatherlink.com 1.10,2013-09-28 15:37:00,
2013-09-28 11:52:00,64.4,60.0,30.25,ENE,58,6.0,7.0,84,0.00,,,0.00,weatherlink.com 1.10,2013-09-28 15:52:00,
2013-09-28 12:07:00,64.5,60.0,30.25,NE,54,6.0,7.0,84,0.00,,,0.00,weatherlink.com 1.10,2013-09-28 16:07:00,
2013-09-28 12:22:00,64.6,59.0,30.25,ENE,60,4.0,6.0,83,0.00,,,0.00,weatherlink.com 1.10,2013-09-28 16:22:00,
2013-09-28 12:37:00,64.8,60.0,30.25,NE,44,3.0,7.0,83,0.00,,,0.00,weatherlink.com 1.10,2013-09-28 16:37:00,
2013-09-28 12:52:00,65.1,60.0,30.24,NE,49,6.0,7.0,84,0.00,,,0.00,weatherlink.com 1.10,2013-09-28 16:52:00,
2013-09-28 13:07:00,65.0,60.0,30.24,NE,51,5.0,7.0,84,0.00,,,0.00,weatherlink.com 1.10,2013-09-28 17:07:00,
2013-09-28 13:22:00,65.1,60.0,30.24,NE,39,3.0,7.0,83,0.00,,,0.00,weatherlink.com 1.10,2013-09-28 17:22:00,
2013-09-28 13:37:00,65.3,59.0,30.23,NE,52,4.0,6.0,80,0.00,,,0.00,weatherlink.com 1.10,2013-09-28 17:37:00,
2013-09-28 13:52:00,65.5,59.0,30.24,ENE,61,5.0,6.0,79,0.00,,,0.00,weatherlink.com 1.10,2013-09-28 17:52:00,
2013-09-28 14:07:00,65.5,60.0,30.23,NE,34,5.0,6.0,82,0.00,,,0.00,weatherlink.com 1.10,2013-09-28 18:07:00,
2013-09-28 14:22:00,65.2,57.0,30.24,ESE,102,6.0,9.0,76,0.00,,,0.00,weatherlink.com 1.10,2013-09-28 18:22:00,
2013-09-28 14:37:00,65.0,56.0,30.24,East,90,6.0,10.0,73,0.00,,,0.00,weatherlink.com 1.10,2013-09-28 18:37:00,
2013-09-28 14:52:00,65.1,55.0,30.23,ENE,74,7.0,9.0,71,0.00,,,0.00,weatherlink.com 1.10,2013-09-28 18:52:00,
2013-09-28 15:07:00,65.2,54.0,30.24,East,94,7.0,9.0,68,0.00,,,0.00,weatherlink.com 1.10,2013-09-28 19:07:00,
2013-09-28 15:22:00,65.0,55.0,30.23,ENE,69,6.0,9.0,70,0.00,,,0.00,weatherlink.com 1.10,2013-09-28 19:22:00,
2013-09-28 15:37:00,64.9,54.0,30.23,East,89,8.0,10.0,69,0.00,,,0.00,weatherlink.com 1.10,2013-09-28 19:37:00,
2013-09-28 15:52:00,64.1,56.0,30.23,ENE,72,7.0,11.0,74,0.00,,,0.00,weatherlink.com 1.10,2013-09-28 19:52:00,
2013-09-28 16:07:00,63.8,54.0,30.23,East,81,7.0,11.0,71,0.00,,,0.00,weatherlink.com 1.10,2013-09-28 20:07:00,
2013-09-28 16:22:00,63.9,54.0,30.23,ESE,110,8.0,12.0,71,0.00,,,0.00,weatherlink.com 1.10,2013-09-28 20:22:00,
2013-09-28 16:37:00,63.6,54.0,30.23,ESE,106,7.0,12.0,70,0.00,,,0.00,weatherlink.com 1.10,2013-09-28 20:37:00,
2013-09-28 16:52:00,63.6,54.0,30.23,East,96,9.0,10.0,72,0.00,,,0.00,weatherlink.com 1.10,2013-09-28 20:52:00,
2013-09-28 17:07:00,63.5,54.0,30.23,East,86,6.0,11.0,71,0.00,,,0.00,weatherlink.com 1.10,2013-09-28 21:07:00,
2013-09-28 17:22:00,63.0,54.0,30.23,ESE,115,9.0,10.0,72,0.00,,,0.00,weatherlink.com 1.10,2013-09-28 21:22:00,
2013-09-28 17:37:00,62.8,54.0,30.23,East,81,8.0,10.0,72,0.00,,,0.00,weatherlink.com 1.10,2013-09-28 21:37:00,
2013-09-28 17:52:00,62.6,55.0,30.24,ESE,117,6.0,8.0,75,0.00,,,0.00,weatherlink.com 1.10,2013-09-28 21:52:00,
2013-09-28 18:07:00,62.3,54.0,30.24,ESE,105,7.0,8.0,73,0.00,,,0.00,weatherlink.com 1.10,2013-09-28 22:07:00,
2013-09-28 18:22:00,62.0,54.0,30.23,East,96,5.0,8.0,75,0.00,,,0.00,weatherlink.com 1.10,2013-09-28 22:22:00,
2013-09-28 18:38:00,61.5,54.0,30.23,ESE,117,4.0,6.0,77,0.00,,,0.00,weatherlink.com 1.10,2013-09-28 22:38:00,
2013-09-28 18:53:00,61.0,54.0,30.23,ESE,120,1.0,6.0,79,0.00,,,0.00,weatherlink.com 1.10,2013-09-28 22:53:00,
2013-09-28 19:08:00,60.8,55.0,30.23,ESE,106,6.0,8.0,81,0.00,,,0.00,weatherlink.com 1.10,2013-09-28 23:08:00,
2013-09-28 19:23:00,60.6,55.0,30.23,East,96,5.0,7.0,81,0.00,,,0.00,weatherlink.com 1.10,2013-09-28 23:23:00,
2013-09-28 19:38:00,60.7,55.0,30.23,ESE,105,8.0,8.0,82,0.00,,,0.00,weatherlink.com 1.10,2013-09-28 23:38:00,
2013-09-28 19:53:00,60.7,55.0,30.23,East,98,6.0,7.0,81,0.00,,,0.00,weatherlink.com 1.10,2013-09-28 23:53:00,
2013-09-28 20:08:00,60.3,54.0,30.23,ESE,120,5.0,5.0,79,0.00,,,0.00,weatherlink.com 1.10,2013-09-29 00:08:00,
2013-09-28 20:23:00,60.2,54.0,30.23,ESE,122,4.0,6.0,79,0.00,,,0.00,weatherlink.com 1.10,2013-09-29 00:23:00,
2013-09-28 20:38:00,59.9,53.0,30.23,East,100,4.0,5.0,79,0.00,,,0.00,weatherlink.com 1.10,2013-09-29 00:38:00,
2013-09-28 20:53:00,59.7,52.0,30.23,ESE,111,2.0,5.0,76,0.00,,,0.00,weatherlink.com 1.10,2013-09-29 00:53:00,
2013-09-28 21:08:00,59.6,52.0,30.23,ESE,113,3.0,4.0,77,0.00,,,0.00,weatherlink.com 1.10,2013-09-29 01:08:00,
2013-09-28 21:23:00,59.3,52.0,30.23,ESE,112,3.0,4.0,78,0.00,,,0.00,weatherlink.com 1.10,2013-09-29 01:23:00,
2013-09-28 21:38:00,59.0,53.0,30.23,SE,134,1.0,3.0,80,0.00,,,0.00,weatherlink.com 1.10,2013-09-29 01:38:00,
2013-09-28 21:53:00,58.3,53.0,30.23,ESE,120,2.0,2.0,81,0.00,,,0.00,weatherlink.com 1.10,2013-09-29 01:53:00,
2013-09-28 22:09:00,58.1,52.0,30.23,ESE,108,4.0,4.0,81,0.00,,,0.00,weatherlink.com 1.10,2013-09-29 02:09:00,
2013-09-28 22:23:00,58.4,53.0,30.23,ESE,117,2.0,4.0,81,0.00,,,0.00,weatherlink.com 1.10,2013-09-29 02:23:00,
2013-09-28 22:38:00,58.3,53.0,30.22,SE,134,1.0,4.0,81,0.00,,,0.00,weatherlink.com 1.10,2013-09-29 02:38:00,
2013-09-28 22:53:00,58.4,53.0,30.22,ESE,122,3.0,5.0,81,0.00,,,0.00,weatherlink.com 1.10,2013-09-29 02:53:00,
2013-09-28 23:08:00,57.6,52.0,30.22,SE,140,0.0,3.0,82,0.00,,,0.00,weatherlink.com 1.10,2013-09-29 03:08:00,
2013-09-28 23:23:00,57.2,52.0,30.21,SE,134,1.0,2.0,83,0.00,,,0.00,weatherlink.com 1.10,2013-09-29 03:23:00,
2013-09-28 23:38:00,56.7,52.0,30.21,SE,134,1.0,3.0,85,0.00,,,0.00,weatherlink.com 1.10,2013-09-29 03:38:00,
2013-09-28 23:53:00,56.6,53.0,30.20,East,79,3.0,3.0,87,0.00,,,0.00,weatherlink.com 1.10,2013-09-29 03:53:00,